EW5589 Weather Reports


time (UTC)temp
C
wind
direction
speed
KPH
gust
KPH
rain 1hr
cm
rain 24hr
cm
rain mn
cm
humidity
%
barometer
mb
20260504044616 12 211 16.1 27.4 0.00 0.03 0.03 60 1008.2
20260504043046 12 217 19.3 27.4 0.00 0.03 0.03 62 1008.1
20260504041538 13 217 19.3 32.2 0.00 0.03 0.03 61 1008.2
20260504040023 13 199 19.3 27.4 0.00 0.03 0.03 59 1008.1
20260504034519 12 218 17.7 25.7 0.00 0.03 0.03 61 1008.1
20260504033059 12 217 14.5 19.3 0.00 0.03 0.03 63 1008.2
20260504031558 12 206 12.9 19.3 0.00 0.03 0.03 63 1008.2
20260504030041 12 212 16.1 19.3 0.00 0.03 0.03 62 1008.3
20260504024539 12 220 12.9 20.9 0.00 0.03 0.03 64 1008.3
20260504023024 12 228 8.0 14.5 0.00 0.03 0.03 69 1008.4
20260504021519 11 360 6.4 11.3 0.00 0.03 0.03 73 1008.6
20260504020002 11 360 6.4 12.9 0.00 0.03 0.03 77 1008.6
20260504014505 10 360 4.8 8.0 0.00 0.03 0.03 83 1008.7
20260504013052 10 360 3.2 9.7 0.00 0.03 0.03 83 1008.8
20260504011542 10 360 8.0 14.5 0.00 0.03 0.03 84 1008.8
20260504010023 10 360 6.4 14.5 0.03 0.03 0.03 86 1009.0
20260504004523 10 360 4.8 8.0 0.03 0.03 0.03 86 1009.3
20260504003006 10 360 4.8 8.0 0.03 0.03 0.03 86 1009.2
20260504001503 10 360 4.8 11.3 0.03 0.03 0.03 84 1009.6
20260504000045 10 360 4.8 12.9 0.00 0.00 0.00 80 1009.5
20260503234543 11 360 11.3 19.3 0.00 0.00 0.00 77 1009.3
20260503233025 11 360 17.7 27.4 0.00 0.00 0.00 74 1009.4
20260503231525 12 360 14.5 29.0 0.00 0.00 0.00 67 1009.3
20260503230006 12 250 17.7 27.4 0.00 0.00 0.00 62 1008.9
20260503224509 12 226 17.7 30.6 0.00 0.00 0.00 60 1008.8
20260503223048 12 223 22.5 35.4 0.00 0.00 0.00 60 1008.6
20260503221546 12 238 17.7 30.6 0.00 0.00 0.00 58 1008.6
20260503220029 12 207 14.5 22.5 0.00 0.00 0.00 56 1008.6
20260503214528 13 248 14.5 33.8 0.00 0.00 0.00 55 1008.5
20260503213009 13 177 24.1 33.8 0.00 0.00 0.00 57 1008.3
20260503211508 13 214 19.3 25.7 0.00 0.00 0.00 54 1009.2
20260503210050 13 216 22.5 29.0 0.00 0.00 0.00 53 1009.0
20260503204549 13 237 14.5 32.2 0.00 0.00 0.00 51 1008.8
20260503203034 13 231 17.7 29.0 0.00 0.00 0.00 49 1009.0
20260503201528 13 223 17.7 29.0 0.00 0.00 0.00 49 1009.1
20260503200011 13 283 19.3 33.8 0.00 0.00 0.00 46 1009.3
20260503194507 12 240 11.3 30.6 0.00 0.00 0.00 50 1009.7
20260503193048 12 207 24.1 37.0 0.00 0.00 0.00 49 1010.0
20260503191543 12 217 24.1 32.2 0.00 0.00 0.00 47 1010.4
20260503190021 11 201 24.1 33.8 0.00 0.00 0.00 57 1010.5
20260503184520 8 360 11.3 19.3 0.00 0.00 0.00 68 1011.0
20260503183001 9 75 9.7 14.5 0.00 0.00 0.00 65 1011.2
20260503181604 10 2 3.2 11.3 0.00 0.00 0.00 65 1011.2
20260503180049 9 327 4.8 16.1 0.00 0.00 0.00 67 1011.4
20260503174544 10 354 4.8 11.3 0.00 0.00 0.00 63 1011.6
20260503173020 10 23 3.2 9.7 0.00 0.00 0.00 65 1011.8
20260503171518 10 305 4.8 12.9 0.00 0.00 0.00 64 1012.1
20260503170111 10 356 3.2 11.3 0.00 0.00 0.00 63 1012.2
20260503081552 2 117 1.6 4.8 0.00 0.00 0.00 83 1013.7
20260503071535 3 82 1.6 6.4 0.00 0.00 0.00 81 1013.8
20260503060104 4 83 3.2 4.8 0.00 0.00 0.00 76 1014.1
20260503054512 4 117 1.6 4.8 0.00 0.00 0.00 75 1014.1